STARLINK-11192 [DTC] (60308 NORAD) Tracking and Keplerian Element Data

This shows tracking and keplerian element data for the satellite.

Feedback or suggestion? Click here.




ElementValue
Catalog60308
NameSTARLINK-11192 [DTC]
Epoch Orbit1317
Epoch Day286.79047261
Epoch Year2024
RAAN154.9133
Inclination53.1562
Eccentricity9.34E-05
Argument of Perigee79.0544
Mean Anonmoly281.0581
Mean Motion15.75026627
Decay Rate0.00018803
L11 60308U 24133H 24286.79047261 .00018803 00000+0 12772-3 0 9999
L22 60308 53.1562 154.9133 0000934 79.0544 281.0581 15.75026627 13170



Live tracking and technical data element details for STARLINK-11192 [DTC] (NORAD 60308). STARLINK-11192 [DTC] can be tracked NOW for your location showing map with azimuth and elevation plus other details from your city location.







IsCatalogInMostPopularTable: catalog: 60308, numindb: 8
Update: records affected: 1



GetName: 60308 STARLINK-11192 [DTC]

Hit Count: updated at: Tue, 03 Dec 2024 02:03:58 GMT